Time,TemperatureF,DewpointF,PressureIn,WindDirection,WindDirectionDegrees,WindSpeedMPH,WindSpeedGustMPH,Humidity,HourlyPrecipIn,Conditions,Clouds,dailyrainin,SoftwareType,DateUTC
2013-01-29 00:03:00,50.0,48.0,-100.00,WSW,242,3.0,14.0,99,2.28,,,-99.99,,2013-01-29 05:03:00,
2013-01-29 00:12:00,51.0,50.0,-100.00,SSW,211,3.0,14.0,99,0.00,,,-99.99,,2013-01-29 05:12:00,
2013-01-29 00:22:00,51.0,50.0,-100.00,SW,235,4.0,14.0,98,1.14,,,-99.99,,2013-01-29 05:22:00,
2013-01-29 00:32:00,50.0,48.0,-100.00,WSW,248,2.0,14.0,99,0.00,,,-99.99,,2013-01-29 05:32:00,
2013-01-29 00:42:00,51.0,50.0,-100.00,WSW,237,2.0,14.0,99,0.00,,,-99.99,,2013-01-29 05:42:00,
2013-01-29 00:52:00,51.0,50.0,-100.00,WSW,255,4.0,14.0,98,0.00,,,-99.99,,2013-01-29 05:52:00,
2013-01-29 01:02:00,51.0,50.0,-100.00,West,265,3.0,14.0,99,1.69,,,-99.99,,2013-01-29 06:02:00,
2013-01-29 01:11:00,51.0,50.0,-100.00,SW,230,4.0,14.0,99,2.28,,,-99.99,,2013-01-29 06:11:00,
2013-01-29 01:21:00,50.0,48.0,-100.00,SW,223,3.0,14.0,98,2.28,,,-99.99,,2013-01-29 06:21:00,
2013-01-29 01:32:00,51.0,50.0,-100.00,WSW,241,2.0,14.0,99,1.69,,,-99.99,,2013-01-29 06:32:00,
2013-01-29 01:42:00,50.0,48.0,-100.00,SW,230,2.0,14.0,99,2.83,,,-99.99,,2013-01-29 06:42:00,
2013-01-29 01:52:00,49.0,48.0,-100.00,WSW,254,2.0,14.0,98,2.83,,,-99.99,,2013-01-29 06:52:00,
2013-01-29 02:02:00,49.0,46.0,-100.00,WSW,240,2.0,14.0,98,0.00,,,-99.99,,2013-01-29 07:02:00,
2013-01-29 02:11:00,49.0,48.0,-100.00,WSW,240,2.0,14.0,98,1.69,,,-99.99,,2013-01-29 07:11:00,
2013-01-29 02:21:00,49.0,46.0,-100.00,SW,224,1.0,14.0,98,1.69,,,-99.99,,2013-01-29 07:21:00,
2013-01-29 02:32:00,48.0,46.0,-100.00,SW,230,1.0,14.0,98,1.69,,,-99.99,,2013-01-29 07:32:00,
2013-01-29 02:42:00,48.0,46.0,-100.00,WSW,251,2.0,14.0,98,1.69,,,-99.99,,2013-01-29 07:42:00,
2013-01-29 02:52:00,49.0,48.0,-100.00,SW,231,1.0,14.0,98,1.69,,,-99.99,,2013-01-29 07:52:00,
2013-01-29 03:02:00,49.0,46.0,-100.00,SW,221,1.0,14.0,98,1.69,,,-99.99,,2013-01-29 08:02:00,
2013-01-29 03:11:00,48.0,46.0,-100.00,West,261,0.0,14.0,98,1.69,,,-99.99,,2013-01-29 08:11:00,
2013-01-29 03:21:00,47.0,46.0,-100.00,SSW,196,0.0,14.0,99,2.28,,,-99.99,,2013-01-29 08:21:00,
2013-01-29 03:32:00,48.0,46.0,-100.00,South,169,0.0,14.0,99,1.69,,,-99.99,,2013-01-29 08:32:00,
2013-01-29 03:42:00,49.0,46.0,-100.00,WSW,242,1.0,14.0,98,2.28,,,-99.99,,2013-01-29 08:42:00,
2013-01-29 03:52:00,48.0,46.0,-100.00,SSW,208,1.0,14.0,98,1.69,,,-99.99,,2013-01-29 08:52:00,
2013-01-29 04:02:00,49.0,48.0,-100.00,WSW,247,0.0,14.0,98,1.69,,,-99.99,,2013-01-29 09:02:00,
2013-01-29 04:11:00,49.0,46.0,-100.00,WSW,242,1.0,14.0,98,2.28,,,-99.99,,2013-01-29 09:11:00,
2013-01-29 04:21:00,49.0,46.0,-100.00,WSW,244,0.0,14.0,98,1.14,,,-99.99,,2013-01-29 09:21:00,
2013-01-29 04:32:00,49.0,46.0,-100.00,WSW,241,1.0,14.0,98,1.69,,,-99.99,,2013-01-29 09:32:00,
2013-01-29 04:42:00,48.0,46.0,-100.00,West,268,0.0,14.0,98,2.83,,,-99.99,,2013-01-29 09:42:00,
2013-01-29 04:51:00,48.0,46.0,-100.00,East,80,0.0,14.0,98,2.83,,,-99.99,,2013-01-29 09:51:00,
2013-01-29 05:02:00,49.0,48.0,-100.00,SSE,168,0.0,14.0,99,2.83,,,-99.99,,2013-01-29 10:02:00,
2013-01-29 05:11:00,49.0,48.0,-100.00,SW,214,0.0,14.0,98,1.69,,,-99.99,,2013-01-29 10:11:00,
2013-01-29 05:21:00,49.0,46.0,-100.00,ENE,59,0.0,14.0,98,1.69,,,-99.99,,2013-01-29 10:21:00,
2013-01-29 05:32:00,48.0,46.0,-100.00,SW,231,0.0,14.0,98,2.28,,,-99.99,,2013-01-29 10:32:00,
2013-01-29 05:42:00,49.0,46.0,-100.00,SE,142,0.0,14.0,98,2.83,,,-99.99,,2013-01-29 10:42:00,
2013-01-29 05:52:00,48.0,46.0,-100.00,South,190,0.0,14.0,98,2.28,,,-99.99,,2013-01-29 10:52:00,
2013-01-29 06:02:00,49.0,46.0,-100.00,SE,146,0.0,14.0,98,2.28,,,-99.99,,2013-01-29 11:02:00,
2013-01-29 06:12:00,49.0,46.0,-100.00,NE,42,0.0,0.0,98,2.83,,,-99.99,,2013-01-29 11:12:00,
2013-01-29 06:22:00,50.0,48.0,-100.00,SW,230,0.0,0.0,99,2.83,,,-99.99,,2013-01-29 11:22:00,
2013-01-29 06:32:00,51.0,50.0,-100.00,NW,309,0.0,0.0,99,0.00,,,-99.99,,2013-01-29 11:32:00,
2013-01-29 06:42:00,52.0,50.0,-100.00,WSW,245,0.0,0.0,99,0.00,,,-99.99,,2013-01-29 11:42:00,
2013-01-29 06:52:00,51.0,50.0,-100.00,SSW,210,0.0,0.0,99,0.00,,,-99.99,,2013-01-29 11:52:00,
2013-01-29 07:03:00,51.0,50.0,-100.00,SW,228,0.0,0.0,99,1.69,,,-99.99,,2013-01-29 12:03:00,
2013-01-29 07:12:00,51.0,50.0,-100.00,ESE,112,0.0,0.0,99,0.00,,,-99.99,,2013-01-29 12:12:00,
2013-01-29 07:22:00,51.0,50.0,-100.00,SW,223,0.0,0.0,99,2.28,,,-99.99,,2013-01-29 12:22:00,
2013-01-29 07:33:00,51.0,50.0,-100.00,ENE,62,1.0,2.0,99,0.00,,,-99.99,,2013-01-29 12:33:00,
2013-01-29 07:43:00,51.0,50.0,-100.00,NE,52,1.0,2.0,99,1.69,,,-99.99,,2013-01-29 12:43:00,
2013-01-29 07:52:00,51.0,50.0,-100.00,South,169,0.0,2.0,99,1.69,,,-99.99,,2013-01-29 12:52:00,
2013-01-29 08:02:00,52.0,50.0,-100.00,West,271,1.0,2.0,100,1.14,,,-99.99,,2013-01-29 13:02:00,
2013-01-29 08:12:00,52.0,50.0,-100.00,SE,141,0.0,2.0,99,1.14,,,-99.99,,2013-01-29 13:12:00,
2013-01-29 08:23:00,52.0,52.0,-100.00,West,273,0.0,2.0,99,1.69,,,-99.99,,2013-01-29 13:23:00,
2013-01-29 08:32:00,52.0,50.0,-100.00,West,265,1.0,2.0,100,1.14,,,-99.99,,2013-01-29 13:32:00,
2013-01-29 08:43:00,53.0,52.0,-100.00,SSW,194,1.0,2.0,100,1.69,,,-99.99,,2013-01-29 13:43:00,
2013-01-29 08:52:00,52.0,50.0,-100.00,WSW,238,1.0,2.0,99,0.00,,,-99.99,,2013-01-29 13:52:00,
2013-01-29 09:02:00,52.0,50.0,-100.00,SSW,211,1.0,2.0,98,0.00,,,-99.99,,2013-01-29 14:02:00,
2013-01-29 09:12:00,52.0,50.0,-100.00,West,273,0.0,2.0,99,0.00,,,-99.99,,2013-01-29 14:12:00,
2013-01-29 09:22:00,52.0,50.0,-100.00,SSE,156,0.0,2.0,99,0.00,,,-99.99,,2013-01-29 14:22:00,
2013-01-29 09:33:00,53.0,52.0,-100.00,WNW,288,0.0,2.0,99,0.00,,,-99.99,,2013-01-29 14:33:00,
2013-01-29 09:43:00,55.0,54.0,-100.00,SW,227,2.0,4.0,99,0.00,,,-99.99,,2013-01-29 14:43:00,
2013-01-29 09:52:00,52.0,52.0,-100.00,WSW,254,5.0,8.0,99,0.00,,,-99.99,,2013-01-29 14:52:00,
2013-01-29 10:02:00,53.0,52.0,-100.00,WSW,237,4.0,8.0,99,0.00,,,-99.99,,2013-01-29 15:02:00,
2013-01-29 10:12:00,56.0,55.0,-100.00,WSW,254,2.0,8.0,99,0.00,,,-99.99,,2013-01-29 15:12:00,
2013-01-29 10:22:00,56.0,55.0,-100.00,WSW,251,5.0,8.0,99,0.00,,,-99.99,,2013-01-29 15:22:00,
2013-01-29 10:33:00,56.0,55.0,-100.00,WSW,242,3.0,8.0,99,0.00,,,-99.99,,2013-01-29 15:33:00,
2013-01-29 10:43:00,58.0,57.0,-100.00,SSE,166,3.0,8.0,98,0.00,,,-99.99,,2013-01-29 15:43:00,
2013-01-29 10:53:00,57.0,55.0,-100.00,WSW,258,4.0,8.0,99,0.00,,,-99.99,,2013-01-29 15:53:00,
2013-01-29 11:03:00,57.0,55.0,-100.00,SW,217,6.0,8.0,97,0.00,,,-99.99,,2013-01-29 16:03:00,
2013-01-29 11:12:00,58.0,55.0,-100.00,WSW,252,6.0,8.0,95,0.00,,,-99.99,,2013-01-29 16:12:00,
2013-01-29 11:23:00,58.0,55.0,-100.00,SW,235,8.0,10.0,93,0.00,,,-99.99,,2013-01-29 16:23:00,
2013-01-29 11:32:00,59.0,55.0,-100.00,WSW,241,7.0,10.0,91,0.00,,,-99.99,,2013-01-29 16:32:00,
2013-01-29 11:43:00,59.0,55.0,-100.00,WSW,256,7.0,10.0,90,0.00,,,-99.99,,2013-01-29 16:43:00,
2013-01-29 11:52:00,59.0,55.0,-100.00,WSW,258,7.0,10.0,89,0.00,,,-99.99,,2013-01-29 16:52:00,
2013-01-29 12:03:00,57.0,52.0,-100.00,WSW,247,7.0,10.0,89,0.00,,,-99.99,,2013-01-29 17:03:00,
2013-01-29 12:12:00,58.0,54.0,-100.00,SW,232,6.0,10.0,88,0.00,,,-99.99,,2013-01-29 17:12:00,
2013-01-29 12:22:00,57.0,54.0,-100.00,WSW,252,7.0,10.0,89,0.00,,,-99.99,,2013-01-29 17:22:00,
2013-01-29 12:33:00,58.0,54.0,-100.00,WNW,282,6.0,10.0,89,0.00,,,-99.99,,2013-01-29 17:33:00,
2013-01-29 12:42:00,58.0,54.0,-100.00,West,271,6.0,10.0,88,0.00,,,-99.99,,2013-01-29 17:42:00,
2013-01-29 12:52:00,58.0,54.0,-100.00,WSW,248,2.0,10.0,88,0.00,,,-99.99,,2013-01-29 17:52:00,
2013-01-29 13:04:00,58.0,54.0,-100.00,WSW,255,2.0,10.0,88,0.00,,,-99.99,,2013-01-29 18:04:00,
2013-01-29 13:13:00,59.0,54.0,-100.00,SSE,155,2.0,10.0,86,0.00,,,-99.99,,2013-01-29 18:13:00,
2013-01-29 13:22:00,59.0,54.0,-100.00,WSW,252,2.0,10.0,86,0.00,,,-99.99,,2013-01-29 18:22:00,
2013-01-29 13:33:00,60.0,55.0,-100.00,SSW,196,4.0,10.0,85,0.00,,,-99.99,,2013-01-29 18:33:00,
2013-01-29 13:42:00,60.0,55.0,-100.00,SW,223,6.0,10.0,85,0.00,,,-99.99,,2013-01-29 18:42:00,
2013-01-29 13:52:00,60.0,54.0,-100.00,WSW,237,4.0,10.0,85,0.00,,,-99.99,,2013-01-29 18:52:00,
2013-01-29 14:03:00,60.0,54.0,-100.00,West,273,6.0,10.0,85,0.00,,,-99.99,,2013-01-29 19:03:00,
2013-01-29 14:12:00,60.0,54.0,-100.00,WSW,238,5.0,10.0,85,7.36,,,-99.99,,2013-01-29 19:12:00,
2013-01-29 14:23:00,60.0,55.0,-100.00,WSW,252,6.0,10.0,85,4.53,,,-99.99,,2013-01-29 19:23:00,
2013-01-29 14:33:00,60.0,55.0,-100.00,West,280,3.0,10.0,86,0.00,,,-99.99,,2013-01-29 19:33:00,
2013-01-29 14:42:00,60.0,55.0,-100.00,WSW,247,3.0,10.0,88,0.00,,,-99.99,,2013-01-29 19:42:00,
2013-01-29 14:52:00,61.0,57.0,-100.00,WSW,247,2.0,10.0,88,0.00,,,-99.99,,2013-01-29 19:52:00,
2013-01-29 15:03:00,64.0,59.0,-100.00,South,183,1.0,10.0,88,0.00,,,-99.99,,2013-01-29 20:03:00,
2013-01-29 15:13:00,58.0,54.0,-100.00,SE,138,1.0,10.0,88,0.00,,,-99.99,,2013-01-29 20:13:00,
2013-01-29 15:22:00,61.0,57.0,-100.00,ESE,108,0.0,10.0,89,7.36,,,-99.99,,2013-01-29 20:22:00,
2013-01-29 15:33:00,58.0,54.0,-100.00,WSW,241,0.0,10.0,89,12.48,,,-99.99,,2013-01-29 20:33:00,
2013-01-29 15:42:00,58.0,54.0,-100.00,ENE,64,0.0,10.0,90,1.69,,,-99.99,,2013-01-29 20:42:00,
2013-01-29 15:53:00,59.0,55.0,-100.00,South,184,0.0,10.0,91,0.00,,,-99.99,,2013-01-29 20:53:00,
2013-01-29 16:03:00,58.0,54.0,-100.00,NE,38,0.0,10.0,91,0.00,,,-99.99,,2013-01-29 21:03:00,
2013-01-29 16:12:00,59.0,55.0,-100.00,West,264,0.0,10.0,93,1.69,,,-99.99,,2013-01-29 21:12:00,
2013-01-29 16:22:00,58.0,55.0,-100.00,NE,40,0.0,10.0,93,0.55,,,-99.99,,2013-01-29 21:22:00,
2013-01-29 16:33:00,57.0,54.0,-100.00,East,86,1.0,10.0,91,0.00,,,-99.99,,2013-01-29 21:33:00,
2013-01-29 16:42:00,59.0,57.0,-100.00,NE,46,0.0,10.0,94,0.00,,,-99.99,,2013-01-29 21:42:00,
2013-01-29 16:52:00,58.0,55.0,-100.00,SW,235,0.0,10.0,93,0.00,,,-99.99,,2013-01-29 21:52:00,
2013-01-29 17:03:00,60.0,57.0,-100.00,West,273,0.0,10.0,95,0.00,,,-99.99,,2013-01-29 22:03:00,
2013-01-29 17:12:00,60.0,57.0,-100.00,North,351,0.0,10.0,94,0.00,,,-99.99,,2013-01-29 22:12:00,
2013-01-29 17:22:00,59.0,55.0,-100.00,ENE,77,0.0,10.0,93,0.00,,,-99.99,,2013-01-29 22:22:00,
2013-01-29 17:33:00,59.0,55.0,-100.00,ESE,121,0.0,10.0,93,0.00,,,-99.99,,2013-01-29 22:33:00,
2013-01-29 17:42:00,60.0,57.0,-100.00,ENE,67,0.0,10.0,93,0.00,,,-99.99,,2013-01-29 22:42:00,
2013-01-29 17:53:00,58.0,54.0,-100.00,NNE,25,0.0,10.0,90,0.00,,,-99.99,,2013-01-29 22:53:00,
2013-01-29 18:02:00,58.0,54.0,-100.00,South,190,0.0,10.0,90,0.00,,,-99.99,,2013-01-29 23:02:00,
2013-01-29 18:12:00,56.0,52.0,-100.00,NNE,25,0.0,10.0,90,0.00,,,-99.99,,2013-01-29 23:12:00,
2013-01-29 18:23:00,56.0,52.0,-100.00,East,84,0.0,10.0,89,0.00,,,-99.99,,2013-01-29 23:23:00,
2013-01-29 18:33:00,56.0,52.0,-100.00,South,179,0.0,10.0,89,0.00,,,-99.99,,2013-01-29 23:33:00,
2013-01-29 18:42:00,55.0,50.0,-100.00,NE,43,0.0,10.0,89,0.00,,,-99.99,,2013-01-29 23:42:00,
2013-01-29 18:53:00,55.0,52.0,-100.00,East,90,0.0,10.0,89,0.00,,,-99.99,,2013-01-29 23:53:00,
2013-01-29 19:03:00,55.0,52.0,-100.00,WSW,245,0.0,10.0,89,0.00,,,-99.99,,2013-01-30 00:03:00,
2013-01-29 19:12:00,55.0,50.0,-100.00,North,7,0.0,10.0,89,0.00,,,-99.99,,2013-01-30 00:12:00,
2013-01-29 19:22:00,56.0,52.0,-100.00,NW,314,0.0,10.0,90,0.00,,,-99.99,,2013-01-30 00:22:00,
2013-01-29 19:32:00,55.0,50.0,-100.00,SSW,206,0.0,10.0,89,0.00,,,-99.99,,2013-01-30 00:32:00,
2013-01-29 19:43:00,55.0,50.0,-100.00,South,172,0.0,10.0,88,0.00,,,-99.99,,2013-01-30 00:43:00,
2013-01-29 19:52:00,56.0,52.0,-100.00,SW,217,0.0,10.0,88,0.00,,,-99.99,,2013-01-30 00:52:00,
2013-01-29 20:02:00,55.0,50.0,-100.00,NNW,345,0.0,10.0,88,0.00,,,-99.99,,2013-01-30 01:02:00,
2013-01-29 20:12:00,55.0,50.0,-100.00,SSE,156,0.0,10.0,88,0.00,,,-99.99,,2013-01-30 01:12:00,
2013-01-29 20:22:00,54.0,48.0,-100.00,NE,39,0.0,10.0,86,0.00,,,-99.99,,2013-01-30 01:22:00,
2013-01-29 20:32:00,56.0,50.0,-100.00,ENE,70,0.0,10.0,86,0.00,,,-99.99,,2013-01-30 01:32:00,
2013-01-29 20:42:00,55.0,50.0,-100.00,South,175,0.0,10.0,86,0.00,,,-99.99,,2013-01-30 01:42:00,
2013-01-29 20:52:00,55.0,50.0,-100.00,SSW,208,0.0,10.0,88,0.00,,,-99.99,,2013-01-30 01:52:00,
2013-01-29 21:02:00,54.0,50.0,-100.00,ENE,73,0.0,10.0,88,0.00,,,-99.99,,2013-01-30 02:02:00,
2013-01-29 21:12:00,54.0,50.0,-100.00,SSW,200,0.0,10.0,86,0.00,,,-99.99,,2013-01-30 02:12:00,
2013-01-29 21:22:00,53.0,48.0,-100.00,ENE,69,0.0,10.0,88,0.00,,,-99.99,,2013-01-30 02:22:00,
2013-01-29 21:33:00,55.0,52.0,-100.00,SSW,201,0.0,10.0,89,0.00,,,-99.99,,2013-01-30 02:33:00,
2013-01-29 21:42:00,53.0,48.0,-100.00,NNE,14,0.0,10.0,88,0.00,,,-99.99,,2013-01-30 02:42:00,
2013-01-29 21:52:00,55.0,50.0,-100.00,South,172,0.0,10.0,88,0.00,,,-99.99,,2013-01-30 02:52:00,
2013-01-29 22:03:00,55.0,50.0,-100.00,South,180,0.0,10.0,86,0.00,,,-99.99,,2013-01-30 03:03:00,
2013-01-29 22:12:00,56.0,52.0,-100.00,SE,127,0.0,10.0,88,0.00,,,-99.99,,2013-01-30 03:12:00,
2013-01-29 22:22:00,55.0,50.0,-100.00,North,9,0.0,10.0,88,0.00,,,-99.99,,2013-01-30 03:22:00,
2013-01-29 22:32:00,55.0,50.0,-100.00,East,91,0.0,10.0,88,0.00,,,-99.99,,2013-01-30 03:32:00,
2013-01-29 22:42:00,55.0,50.0,-100.00,SSE,158,0.0,10.0,85,0.00,,,-99.99,,2013-01-30 03:42:00,
2013-01-29 22:52:00,56.0,52.0,-100.00,NW,314,0.0,10.0,86,0.00,,,-99.99,,2013-01-30 03:52:00,
2013-01-29 23:02:00,57.0,52.0,-100.00,SE,124,1.0,10.0,84,0.00,,,-99.99,,2013-01-30 04:02:00,
2013-01-29 23:12:00,58.0,52.0,-100.00,North,11,0.0,10.0,82,0.00,,,-99.99,,2013-01-30 04:12:00,
2013-01-29 23:22:00,57.0,52.0,-100.00,NNW,338,1.0,10.0,84,0.00,,,-99.99,,2013-01-30 04:22:00,
2013-01-29 23:32:00,57.0,50.0,-100.00,NE,48,0.0,10.0,81,0.00,,,-99.99,,2013-01-30 04:32:00,
2013-01-29 23:42:00,57.0,52.0,-100.00,NNE,19,0.0,10.0,84,0.00,,,-99.99,,2013-01-30 04:42:00,
2013-01-29 23:52:00,57.0,52.0,-100.00,NNE,12,0.0,10.0,84,0.00,,,-99.99,,2013-01-30 04:52:00,